START_TIME,STEP,MOV.,M34,t_acc.,L5,t_acc.,L18,t_acc.,L14,t_acc.
1979-07-13 06:00:25.040 ,0,1,2.,12.0,0.,12.0,0.,12.0,0.,12.0
1979-07-13 06:00:37.040 ,0,1,1.,12.0,0.,12.0,0.,12.0,0.,12.0
1979-07-13 06:00:49.040 ,3,1,1.,12.0,0.,12.0,0.,12.0,0.,12.0
1979-07-13 06:01:01.040 ,3,1,0.,12.0,0.,12.0,0.,12.0,0.,12.0
1979-07-13 06:01:13.040 ,7,1,0.,12.0,0.,12.0,0.,12.0,0.,12.0
1979-07-13 06:01:25.040 ,7,1,0.,12.0,0.,12.0,0.,12.0,0.,12.0
1979-07-13 06:01:37.040 ,4,1,0.,12.0,0.,12.0,0.,12.0,0.,12.0
1979-07-13 06:01:49.040 ,4,1,0.,12.0,0.,12.0,0.,12.0,0.,12.0
1979-07-13 06:02:01.040 ,0,1,0.,12.0,0.,12.0,0.,12.0,0.,12.0
1979-07-13 06:02:13.040 ,0,1,0.,12.0,0.,12.0,0.,12.0,0.,12.0
1979-07-13 06:02:25.040 ,3,1,2.,12.0,0.,12.0,0.,12.0,0.,12.0
1979-07-13 06:02:37.040 ,3,1,1.,12.0,0.,12.0,0.,12.0,0.,12.0
1979-07-13 06:02:49.040 ,7,1,0.,12.0,0.,12.0,0.,12.0,0.,12.0
1979-07-13 06:03:01.040 ,7,1,0.,12.0,0.,12.0,0.,12.0,0.,12.0
1979-07-13 06:03:13.040 ,4,1,0.,12.0,0.,12.0,0.,12.0,1.,12.0
1979-07-13 06:03:25.040 ,4,1,1.,12.0,0.,12.0,0.,12.0,0.,12.0
1979-07-13 06:03:37.040 ,0,1,2.,12.0,0.,12.0,0.,12.0,0.,12.0
1979-07-13 06:03:49.040 ,0,1,0.,12.0,0.,12.0,0.,12.0,0.,12.0
1979-07-13 06:04:01.040 ,3,1,0.,12.0,0.,12.0,0.,12.0,1.,12.0
1979-07-13 06:04:13.040 ,3,1,0.,12.0,0.,12.0,0.,12.0,0.,12.0
1979-07-13 06:04:25.040 ,7,1,4.,12.0,0.,12.0,0.,12.0,0.,12.0
1979-07-13 06:04:37.040 ,7,1,1.,12.0,0.,12.0,0.,12.0,0.,12.0
1979-07-13 06:04:49.040 ,4,1,1.,12.0,0.,12.0,0.,12.0,0.,12.0
1979-07-13 06:05:01.040 ,4,1,1.,12.0,0.,12.0,0.,12.0,0.,12.0
1979-07-13 06:05:13.040 ,0,1,1.,12.0,0.,12.0,0.,12.0,1.,12.0
1979-07-13 06:05:25.040 ,0,1,0.,12.0,0.,12.0,0.,12.0,0.,12.0
1979-07-13 06:05:37.040 ,0,0,1.,12.0,0.,12.0,0.,12.0,0.,12.0
1979-07-13 06:05:49.040 ,0,0,0.,12.0,0.,12.0,0.,12.0,0.,12.0
1979-07-13 06:06:01.040 ,0,0,1.,12.0,0.,12.0,0.,12.0,0.,12.0
1979-07-13 06:06:13.040 ,0,0,1.,12.0,0.,12.0,0.,12.0,0.,12.0
1979-07-13 06:06:25.040 ,5,1,0.,12.0,0.,12.0,0.,12.0,0.,12.0
1979-07-13 06:06:37.040 ,5,1,2.,12.0,0.,12.0,0.,12.0,0.,12.0
1979-07-13 06:06:49.040 ,5,0,2.,12.0,0.,12.0,0.,12.0,0.,12.0
1979-07-13 06:07:01.040 ,5,0,2.,12.0,0.,12.0,0.,12.0,0.,12.0
1979-07-13 06:07:13.040 ,4,1,2.,12.0,0.,12.0,0.,12.0,0.,12.0
1979-07-13 06:07:25.040 ,4,1,0.,12.0,0.,12.0,0.,12.0,0.,12.0
1979-07-13 06:07:37.040 ,4,0,0.,12.0,0.,12.0,0.,12.0,0.,12.0
1979-07-13 06:07:49.040 ,4,0,0.,12.0,0.,12.0,0.,12.0,0.,12.0
1979-07-13 06:08:01.040 ,3,1,1.,12.0,0.,12.0,0.,12.0,0.,12.0
1979-07-13 06:08:13.040 ,3,1,1.,12.0,0.,12.0,0.,12.0,0.,12.0
1979-07-13 06:08:25.040 ,3,0,1.,12.0,0.,12.0,0.,12.0,0.,12.0
1979-07-13 06:08:37.040 ,3,0,0.,12.0,0.,12.0,0.,12.0,0.,12.0
1979-07-13 06:08:49.040 ,2,1,3.,12.0,0.,12.0,0.,12.0,0.,12.0
1979-07-13 06:09:01.040 ,2,1,1.,12.0,0.,12.0,0.,12.0,0.,12.0
1979-07-13 06:09:13.040 ,2,0,1.,12.0,0.,12.0,0.,12.0,0.,12.0
1979-07-13 06:09:25.040 ,2,0,1.,12.0,0.,12.0,0.,12.0,0.,12.0
1979-07-13 06:09:37.040 ,1,1,1.,12.0,0.,12.0,0.,12.0,0.,12.0
1979-07-13 06:09:49.040 ,1,1,1.,12.0,0.,12.0,0.,12.0,0.,12.0
1979-07-13 06:10:01.040 ,1,0,0.,12.0,0.,12.0,0.,12.0,0.,12.0
1979-07-13 06:10:13.040 ,1,0,1.,12.0,0.,12.0,0.,12.0,0.,12.0
1979-07-13 06:10:25.040 ,0,1,1.,12.0,0.,12.0,0.,12.0,0.,12.0
1979-07-13 06:10:37.040 ,0,1,0.,12.0,0.,12.0,0.,12.0,0.,12.0
1979-07-13 06:10:49.040 ,0,0,0.,12.0,0.,12.0,0.,12.0,0.,12.0
1979-07-13 06:11:01.040 ,0,0,0.,12.0,0.,12.0,0.,12.0,0.,12.0
1979-07-13 06:11:13.040 ,0,1,0.,12.0,0.,12.0,0.,12.0,0.,12.0
1979-07-13 06:11:25.040 ,0,1,0.,12.0,0.,12.0,0.,12.0,0.,12.0
1979-07-13 06:11:37.040 ,0,0,0.,12.0,0.,12.0,0.,12.0,0.,12.0
1979-07-13 06:11:49.040 ,0,0,0.,12.0,0.,12.0,0.,12.0,0.,12.0
1979-07-13 06:12:01.040 ,1,1,0.,12.0,0.,12.0,0.,12.0,0.,12.0
1979-07-13 06:12:13.040 ,1,1,0.,12.0,0.,12.0,0.,12.0,1.,12.0
1979-07-13 06:12:25.040 ,1,0,1.,12.0,0.,12.0,0.,12.0,0.,12.0
1979-07-13 06:12:37.040 ,1,0,1.,12.0,0.,12.0,0.,12.0,0.,12.0
1979-07-13 06:12:49.040 ,2,1,0.,12.0,0.,12.0,0.,12.0,0.,12.0
1979-07-13 06:13:01.040 ,2,1,0.,12.0,0.,12.0,0.,12.0,1.,12.0
1979-07-13 06:13:13.040 ,2,0,0.,12.0,0.,12.0,0.,12.0,0.,12.0
1979-07-13 06:13:25.040 ,2,0,0.,12.0,0.,12.0,0.,12.0,0.,12.0
1979-07-13 06:13:37.040 ,3,1,0.,12.0,0.,12.0,0.,12.0,1.,12.0
1979-07-13 06:13:49.040 ,3,1,0.,12.0,0.,12.0,0.,12.0,0.,12.0
1979-07-13 06:14:01.040 ,3,0,1.,12.0,0.,12.0,0.,12.0,0.,12.0
1979-07-13 06:14:13.040 ,3,0,1.,12.0,0.,12.0,0.,12.0,0.,12.0
1979-07-13 06:14:25.040 ,4,1,0.,12.0,0.,12.0,0.,12.0,0.,12.0
1979-07-13 06:14:37.040 ,4,1,0.,12.0,0.,12.0,0.,12.0,0.,12.0
1979-07-13 06:14:49.040 ,4,0,0.,12.0,0.,12.0,0.,12.0,1.,12.0
1979-07-13 06:15:01.040 ,4,0,0.,12.0,0.,12.0,0.,12.0,0.,12.0
1979-07-13 06:15:13.040 ,5,1,0.,12.0,0.,12.0,0.,12.0,0.,12.0
1979-07-13 06:15:25.040 ,5,1,0.,12.0,0.,12.0,0.,12.0,0.,12.0
1979-07-13 06:15:37.040 ,5,0,0.,12.0,0.,12.0,0.,12.0,1.,12.0
1979-07-13 06:15:49.040 ,5,0,0.,12.0,0.,12.0,0.,12.0,0.,12.0
1979-07-13 06:16:01.040 ,6,1,0.,12.0,0.,12.0,0.,12.0,0.,12.0
1979-07-13 06:16:13.040 ,6,1,0.,12.0,0.,12.0,0.,12.0,0.,12.0
1979-07-13 06:16:25.040 ,6,0,1.,12.0,0.,12.0,0.,12.0,1.,12.0
1979-07-13 06:16:37.040 ,6,0,0.,12.0,0.,12.0,0.,12.0,0.,12.0
1979-07-13 06:16:49.040 ,7,1,0.,12.0,0.,12.0,0.,12.0,0.,12.0
1979-07-13 06:17:01.040 ,7,1,0.,12.0,0.,12.0,0.,12.0,0.,12.0
1979-07-13 06:17:13.040 ,7,0,0.,12.0,0.,12.0,0.,12.0,0.,12.0
1979-07-13 06:17:25.040 ,7,0,0.,12.0,0.,12.0,0.,12.0,0.,12.0
1979-07-13 06:17:37.040 ,7,1,0.,12.0,0.,12.0,0.,12.0,1.,12.0
1979-07-13 06:17:49.040 ,7,1,0.,12.0,0.,12.0,0.,12.0,0.,12.0
1979-07-13 06:18:01.040 ,7,0,0.,12.0,0.,12.0,0.,12.0,0.,12.0
1979-07-13 06:18:13.040 ,7,0,0.,12.0,0.,12.0,0.,12.0,0.,12.0
1979-07-13 06:18:25.040 ,6,1,0.,12.0,0.,12.0,0.,12.0,0.,12.0
1979-07-13 06:18:37.040 ,6,1,0.,12.0,0.,12.0,0.,12.0,0.,12.0
1979-07-13 06:18:49.040 ,6,0,1.,12.0,0.,12.0,0.,12.0,0.,12.0
1979-07-13 06:19:01.040 ,6,0,1.,12.0,0.,12.0,0.,12.0,0.,12.0
1979-07-13 06:19:13.040 ,5,1,0.,12.0,0.,12.0,0.,12.0,0.,12.0
1979-07-13 06:19:25.040 ,5,1,0.,12.0,0.,12.0,0.,12.0,1.,12.0
1979-07-13 06:19:37.040 ,5,0,2.,12.0,0.,12.0,0.,12.0,0.,12.0
1979-07-13 06:19:49.040 ,5,0,2.,12.0,0.,12.0,0.,12.0,0.,12.0
1979-07-13 06:20:01.040 ,4,1,1.,12.0,0.,12.0,0.,12.0,0.,12.0
1979-07-13 06:20:13.040 ,4,1,1.,12.0,0.,12.0,0.,12.0,0.,12.0
1979-07-13 06:20:25.040 ,4,0,0.,12.0,0.,12.0,0.,12.0,0.,12.0
1979-07-13 06:20:37.040 ,4,0,2.,12.0,0.,12.0,0.,12.0,0.,12.0
1979-07-13 06:20:49.040 ,3,1,0.,12.0,0.,12.0,0.,12.0,0.,12.0
1979-07-13 06:21:01.040 ,3,1,4.,12.0,0.,12.0,0.,12.0,0.,12.0
1979-07-13 06:21:13.040 ,3,0,2.,12.0,0.,12.0,0.,12.0,0.,12.0
1979-07-13 06:21:25.040 ,3,0,0.,12.0,0.,12.0,0.,12.0,0.,12.0
1979-07-13 06:21:37.040 ,2,1,1.,12.0,0.,12.0,0.,12.0,0.,12.0
1979-07-13 06:21:49.040 ,2,1,2.,12.0,0.,12.0,0.,12.0,0.,12.0
1979-07-13 06:22:01.040 ,2,0,0.,12.0,0.,12.0,0.,12.0,0.,12.0
1979-07-13 06:22:13.040 ,2,0,1.,12.0,0.,12.0,0.,12.0,0.,12.0
1979-07-13 06:22:25.040 ,1,1,2.,12.0,0.,12.0,0.,12.0,0.,12.0
1979-07-13 06:22:37.040 ,1,1,0.,12.0,0.,12.0,0.,12.0,1.,12.0
1979-07-13 06:22:49.040 ,1,0,0.,12.0,0.,12.0,0.,12.0,0.,12.0
1979-07-13 06:23:01.040 ,1,0,0.,12.0,0.,12.0,0.,12.0,0.,12.0
1979-07-13 06:23:13.040 ,0,1,1.,12.0,0.,12.0,0.,12.0,1.,12.0
1979-07-13 06:23:25.040 ,0,1,1.,12.0,0.,12.0,0.,12.0,2.,12.0
1979-07-13 06:23:37.040 ,0,0,0.,12.0,0.,12.0,0.,12.0,0.,12.0
1979-07-13 06:23:49.040 ,0,0,0.,12.0,0.,12.0,0.,12.0,0.,12.0
1979-07-13 06:24:01.040 ,0,1,1.,12.0,0.,12.0,0.,12.0,0.,12.0
1979-07-13 06:24:13.040 ,0,1,2.,12.0,0.,12.0,0.,12.0,0.,12.0
1979-07-13 06:24:25.040 ,0,0,0.,12.0,0.,12.0,0.,12.0,1.,12.0
1979-07-13 06:24:37.040 ,0,0,0.,12.0,0.,12.0,0.,12.0,0.,12.0
1979-07-13 06:24:49.040 ,1,1,0.,12.0,0.,12.0,0.,12.0,0.,12.0
1979-07-13 06:25:01.040 ,1,1,0.,12.0,0.,12.0,0.,12.0,0.,12.0
1979-07-13 06:25:13.040 ,1,0,0.,12.0,0.,12.0,0.,12.0,0.,12.0
1979-07-13 06:25:25.040 ,1,0,0.,12.0,0.,12.0,0.,12.0,0.,12.0
1979-07-13 06:25:37.040 ,2,1,0.,12.0,0.,12.0,0.,12.0,1.,12.0
1979-07-13 06:25:49.040 ,2,1,1.,12.0,0.,12.0,0.,12.0,0.,12.0
1979-07-13 06:26:01.040 ,2,0,1.,12.0,0.,12.0,0.,12.0,0.,12.0
1979-07-13 06:26:13.040 ,2,0,0.,12.0,0.,12.0,0.,12.0,0.,12.0
1979-07-13 06:26:25.040 ,3,1,0.,12.0,0.,12.0,0.,12.0,0.,12.0
1979-07-13 06:26:37.040 ,3,1,1.,12.0,0.,12.0,0.,12.0,0.,12.0
1979-07-13 06:26:49.040 ,3,0,0.,12.0,0.,12.0,0.,12.0,0.,12.0
1979-07-13 06:27:01.040 ,3,0,2.,12.0,0.,12.0,0.,12.0,1.,12.0
1979-07-13 06:27:13.040 ,4,1,1.,12.0,0.,12.0,0.,12.0,0.,12.0
1979-07-13 06:27:25.040 ,4,1,0.,12.0,0.,12.0,0.,12.0,0.,12.0
1979-07-13 06:27:37.040 ,4,0,0.,12.0,0.,12.0,0.,12.0,0.,12.0
1979-07-13 06:27:49.040 ,4,0,0.,12.0,0.,12.0,0.,12.0,0.,12.0
1979-07-13 06:28:01.040 ,5,1,0.,12.0,0.,12.0,0.,12.0,0.,12.0
1979-07-13 06:28:13.040 ,5,1,0.,12.0,0.,12.0,0.,12.0,0.,12.0
1979-07-13 06:28:25.040 ,5,0,0.,12.0,0.,12.0,0.,12.0,0.,12.0
1979-07-13 06:28:37.040 ,5,0,1.,12.0,0.,12.0,0.,12.0,0.,12.0
1979-07-13 06:28:49.040 ,6,1,0.,12.0,0.,12.0,0.,12.0,0.,12.0
1979-07-13 06:29:01.040 ,6,1,0.,12.0,0.,12.0,0.,12.0,0.,12.0
1979-07-13 06:29:13.040 ,6,0,0.,12.0,0.,12.0,0.,12.0,0.,12.0
1979-07-13 06:29:25.040 ,6,0,0.,12.0,0.,12.0,0.,12.0,0.,12.0
1979-07-13 06:29:37.040 ,7,1,0.,12.0,0.,12.0,0.,12.0,1.,12.0
1979-07-13 06:29:49.040 ,7,1,0.,12.0,0.,12.0,0.,12.0,0.,12.0
1979-07-13 06:30:01.040 ,7,0,0.,12.0,0.,12.0,0.,12.0,0.,12.0
1979-07-13 06:30:13.040 ,7,0,0.,12.0,0.,12.0,0.,12.0,0.,12.0
1979-07-13 06:30:25.040 ,7,1,0.,12.0,0.,12.0,0.,12.0,0.,12.0
1979-07-13 06:30:37.040 ,7,1,0.,12.0,0.,12.0,0.,12.0,0.,12.0
1979-07-13 06:30:49.040 ,7,0,0.,12.0,0.,12.0,0.,12.0,1.,12.0
1979-07-13 06:31:01.040 ,7,0,0.,12.0,0.,12.0,0.,12.0,0.,12.0
1979-07-13 06:31:13.040 ,6,1,0.,12.0,0.,12.0,0.,12.0,0.,12.0
1979-07-13 06:31:25.040 ,6,1,0.,12.0,0.,12.0,0.,12.0,0.,12.0
1979-07-13 06:31:37.040 ,6,0,0.,12.0,0.,12.0,0.,12.0,0.,12.0
1979-07-13 06:31:49.040 ,6,0,0.,12.0,0.,12.0,0.,12.0,0.,12.0
1979-07-13 06:32:01.040 ,5,1,0.,12.0,0.,12.0,0.,12.0,0.,12.0
1979-07-13 06:32:13.040 ,5,1,0.,12.0,0.,12.0,0.,12.0,0.,12.0
1979-07-13 06:32:25.040 ,5,0,0.,12.0,0.,12.0,0.,12.0,0.,12.0
1979-07-13 06:32:37.040 ,5,0,1.,12.0,0.,12.0,0.,12.0,0.,12.0
1979-07-13 06:32:49.040 ,4,1,0.,12.0,0.,12.0,0.,12.0,0.,12.0
1979-07-13 06:33:01.040 ,4,1,0.,12.0,0.,12.0,0.,12.0,0.,12.0
1979-07-13 06:33:13.040 ,4,0,0.,12.0,0.,12.0,0.,12.0,0.,12.0
1979-07-13 06:33:25.040 ,4,0,1.,12.0,0.,12.0,0.,12.0,0.,12.0
1979-07-13 06:33:37.040 ,3,1,0.,12.0,0.,12.0,0.,12.0,0.,12.0
1979-07-13 06:33:49.040 ,3,1,0.,12.0,0.,12.0,0.,12.0,1.,12.0
1979-07-13 06:34:01.040 ,3,0,0.,12.0,0.,12.0,0.,12.0,0.,12.0
1979-07-13 06:34:13.040 ,3,0,0.,12.0,0.,12.0,0.,12.0,0.,12.0
1979-07-13 06:34:25.040 ,2,1,0.,12.0,0.,12.0,0.,12.0,0.,12.0
1979-07-13 06:34:37.040 ,2,1,0.,12.0,0.,12.0,0.,12.0,0.,12.0
1979-07-13 06:34:49.040 ,2,0,1.,12.0,0.,12.0,0.,12.0,0.,12.0
1979-07-13 06:35:01.040 ,2,0,0.,12.0,0.,12.0,0.,12.0,0.,12.0
1979-07-13 06:35:13.040 ,1,1,0.,12.0,0.,12.0,0.,12.0,0.,12.0
1979-07-13 06:35:25.040 ,1,1,0.,12.0,0.,12.0,0.,12.0,0.,12.0
1979-07-13 06:35:37.040 ,1,0,0.,12.0,0.,12.0,0.,12.0,0.,12.0
1979-07-13 06:35:49.040 ,1,0,0.,12.0,0.,12.0,0.,12.0,0.,12.0
1979-07-13 06:36:01.040 ,0,1,0.,12.0,0.,12.0,0.,12.0,0.,12.0
1979-07-13 06:36:13.040 ,0,1,0.,12.0,0.,12.0,0.,12.0,0.,12.0
1979-07-13 06:36:25.040 ,0,0,0.,12.0,0.,12.0,0.,12.0,0.,12.0
1979-07-13 06:36:37.040 ,0,0,0.,12.0,0.,12.0,0.,12.0,0.,12.0
1979-07-13 06:36:49.040 ,0,1,0.,12.0,0.,12.0,0.,12.0,0.,12.0
1979-07-13 06:37:01.040 ,0,1,0.,12.0,0.,12.0,0.,12.0,1.,12.0
1979-07-13 06:37:13.040 ,0,0,0.,12.0,0.,12.0,0.,12.0,0.,12.0
1979-07-13 06:37:25.040 ,0,0,0.,12.0,0.,12.0,0.,12.0,0.,12.0
1979-07-13 06:37:37.040 ,1,1,0.,12.0,0.,12.0,0.,12.0,0.,12.0
1979-07-13 06:37:49.040 ,1,1,0.,12.0,0.,12.0,0.,12.0,0.,12.0
1979-07-13 06:38:01.040 ,1,0,0.,12.0,0.,12.0,0.,12.0,0.,12.0
1979-07-13 06:38:13.040 ,1,0,0.,12.0,0.,12.0,0.,12.0,0.,12.0
1979-07-13 06:38:25.040 ,2,1,0.,12.0,0.,12.0,0.,12.0,0.,12.0
1979-07-13 06:38:37.040 ,2,1,0.,12.0,0.,12.0,0.,12.0,0.,12.0
1979-07-13 06:38:49.040 ,2,0,0.,12.0,0.,12.0,0.,12.0,0.,12.0
1979-07-13 06:39:01.040 ,2,0,0.,12.0,0.,12.0,0.,12.0,0.,12.0
1979-07-13 06:39:13.040 ,3,1,0.,12.0,0.,12.0,0.,12.0,0.,12.0
1979-07-13 06:39:25.040 ,3,1,0.,12.0,0.,12.0,0.,12.0,0.,12.0
1979-07-13 06:39:37.040 ,3,0,3.,12.0,0.,12.0,0.,12.0,0.,12.0
1979-07-13 06:39:49.040 ,3,0,0.,12.0,0.,12.0,0.,12.0,0.,12.0
1979-07-13 06:40:01.040 ,4,1,1.,12.0,0.,12.0,0.,12.0,0.,12.0
1979-07-13 06:40:13.040 ,4,1,0.,12.0,0.,12.0,0.,12.0,0.,12.0
1979-07-13 06:40:25.040 ,4,0,0.,12.0,0.,12.0,0.,12.0,0.,12.0
1979-07-13 06:40:37.040 ,4,0,0.,12.0,0.,12.0,0.,12.0,0.,12.0
1979-07-13 06:40:49.040 ,5,1,0.,12.0,0.,12.0,0.,12.0,0.,12.0
1979-07-13 06:41:01.040 ,5,1,0.,12.0,0.,12.0,0.,12.0,0.,12.0
1979-07-13 06:41:13.040 ,5,0,0.,12.0,0.,12.0,0.,12.0,0.,12.0
1979-07-13 06:41:25.040 ,5,0,0.,12.0,0.,12.0,0.,12.0,0.,12.0
1979-07-13 06:41:37.040 ,6,1,0.,12.0,0.,12.0,0.,12.0,0.,12.0
1979-07-13 06:41:49.040 ,6,1,0.,12.0,0.,12.0,0.,12.0,0.,12.0
1979-07-13 06:42:01.040 ,6,0,0.,12.0,0.,12.0,0.,12.0,0.,12.0
1979-07-13 06:42:13.040 ,6,0,0.,12.0,0.,12.0,0.,12.0,0.,12.0
1979-07-13 06:42:25.040 ,7,0,0.,12.0,0.,12.0,0.,12.0,0.,12.0
1979-07-13 06:42:37.040 ,7,0,0.,12.0,0.,12.0,0.,12.0,0.,12.0
1979-07-13 06:42:49.040 ,7,0,0.,12.0,0.,12.0,0.,12.0,0.,12.0
1979-07-13 06:43:01.040 ,7,0,0.,12.0,0.,12.0,0.,12.0,0.,12.0
1979-07-13 06:43:13.040 ,4,1,1.,12.0,0.,12.0,0.,12.0,0.,12.0
1979-07-13 06:43:25.040 ,4,1,1.,12.0,0.,12.0,0.,12.0,1.,12.0
1979-07-13 06:43:37.040 ,0,1,2.,12.0,0.,12.0,0.,12.0,0.,12.0
1979-07-13 06:43:49.040 ,0,1,2.,12.0,0.,12.0,0.,12.0,0.,12.0
1979-07-13 06:44:01.040 ,3,1,2.,12.0,0.,12.0,0.,12.0,0.,12.0
1979-07-13 06:44:13.040 ,3,1,0.,12.0,0.,12.0,0.,12.0,0.,12.0
1979-07-13 06:44:25.040 ,7,1,0.,12.0,0.,12.0,0.,12.0,0.,12.0
1979-07-13 06:44:37.040 ,7,1,0.,12.0,0.,12.0,0.,12.0,0.,12.0
1979-07-13 06:44:49.040 ,4,1,0.,12.0,0.,12.0,0.,12.0,0.,12.0
1979-07-13 06:45:01.040 ,4,1,2.,12.0,0.,12.0,0.,12.0,0.,12.0
1979-07-13 06:45:13.040 ,0,1,1.,12.0,0.,12.0,0.,12.0,0.,12.0
1979-07-13 06:45:25.040 ,0,1,0.,12.0,0.,12.0,0.,12.0,0.,12.0
1979-07-13 06:45:37.040 ,3,1,0.,12.0,0.,12.0,0.,12.0,0.,12.0
1979-07-13 06:45:49.040 ,3,1,0.,12.0,0.,12.0,0.,12.0,0.,12.0
1979-07-13 06:46:01.040 ,7,1,0.,12.0,0.,12.0,0.,12.0,0.,12.0
1979-07-13 06:46:13.040 ,7,1,0.,12.0,0.,12.0,0.,12.0,0.,12.0
1979-07-13 06:46:25.040 ,4,1,0.,12.0,0.,12.0,0.,12.0,0.,12.0
1979-07-13 06:46:37.040 ,4,1,1.,12.0,0.,12.0,0.,12.0,0.,12.0
1979-07-13 06:46:49.040 ,0,1,1.,12.0,0.,12.0,0.,12.0,0.,12.0
1979-07-13 06:47:01.040 ,0,1,1.,12.0,0.,12.0,0.,12.0,1.,12.0
1979-07-13 06:47:13.040 ,3,1,0.,12.0,0.,12.0,0.,12.0,0.,12.0
1979-07-13 06:47:25.040 ,3,1,2.,12.0,0.,12.0,0.,12.0,0.,12.0
1979-07-13 06:47:37.040 ,7,1,1.,12.0,0.,12.0,0.,12.0,0.,12.0
1979-07-13 06:47:49.040 ,7,1,2.,12.0,0.,12.0,0.,12.0,1.,12.0
1979-07-13 06:48:01.040 ,4,1,0.,12.0,0.,12.0,0.,12.0,0.,12.0
1979-07-13 06:48:13.040 ,4,1,2.,12.0,0.,12.0,0.,12.0,0.,12.0
1979-07-13 06:48:25.040 ,0,1,2.,12.0,0.,12.0,0.,12.0,0.,12.0
1979-07-13 06:48:37.040 ,0,1,1.,12.0,0.,12.0,0.,12.0,0.,12.0
1979-07-13 06:48:49.040 ,3,1,0.,12.0,0.,12.0,0.,12.0,0.,12.0
1979-07-13 06:49:01.040 ,3,1,4.,12.0,0.,12.0,0.,12.0,0.,12.0
1979-07-13 06:49:13.040 ,7,1,5.,12.0,0.,12.0,0.,12.0,0.,12.0
1979-07-13 06:49:25.040 ,7,1,4.,12.0,0.,12.0,0.,12.0,1.,12.0
1979-07-13 06:49:37.040 ,4,1,0.,12.0,0.,12.0,0.,12.0,0.,12.0
1979-07-13 06:49:49.040 ,4,1,9.,12.0,0.,12.0,0.,12.0,0.,12.0
1979-07-13 06:50:01.040 ,0,1,12.,12.0,0.,12.0,0.,12.0,1.,12.0
1979-07-13 06:50:13.040 ,0,1,6.,12.0,0.,12.0,0.,12.0,0.,12.0
1979-07-13 06:50:25.040 ,3,1,1.,12.0,0.,12.0,0.,12.0,1.,12.0
1979-07-13 06:50:37.040 ,3,1,8.,12.0,0.,12.0,0.,12.0,0.,12.0
1979-07-13 06:50:49.040 ,7,1,9.,12.0,0.,12.0,0.,12.0,0.,12.0
1979-07-13 06:51:01.040 ,7,1,5.,12.0,0.,12.0,0.,12.0,0.,12.0
1979-07-13 06:51:13.040 ,4,1,0.,12.0,0.,12.0,0.,12.0,0.,12.0
1979-07-13 06:51:25.040 ,4,1,5.,12.0,0.,12.0,0.,12.0,1.,12.0
1979-07-13 06:51:37.040 ,0,1,3.,12.0,0.,12.0,0.,12.0,0.,12.0
1979-07-13 06:51:49.040 ,0,1,6.,12.0,0.,12.0,0.,12.0,0.,12.0
1979-07-13 06:52:01.040 ,3,1,2.,12.0,0.,12.0,0.,12.0,0.,12.0
1979-07-13 06:52:13.040 ,3,1,7.,12.0,0.,12.0,0.,12.0,0.,12.0
1979-07-13 06:52:25.040 ,7,1,2.,12.0,0.,12.0,0.,12.0,0.,12.0
1979-07-13 06:52:37.040 ,7,1,6.,12.0,0.,12.0,0.,12.0,0.,12.0
1979-07-13 06:52:49.040 ,0,0,4.,12.0,0.,12.0,0.,12.0,0.,12.0
1979-07-13 06:53:01.040 ,0,0,4.,12.0,0.,12.0,0.,12.0,0.,12.0
1979-07-13 06:53:13.040 ,0,0,,0,,0,,0,,0
1979-07-13 06:53:25.040 ,0,0,,0,,0,,0,,0
1979-07-13 06:53:25.040 ,0,0,,0,,0,,0,,0
1979-07-13 06:53:37.040 ,0,0,11.,12.0,0.,12.0,0.,12.0,0.,12.0
1979-07-13 06:53:37.040 ,0,0,6.,12.0,0.,12.0,0.,12.0,0.,12.0
1979-07-13 06:53:49.040 ,0,0,11.,12.0,0.,12.0,0.,12.0,0.,12.0
1979-07-13 06:54:01.040 ,0,0,6.,12.0,0.,12.0,0.,12.0,0.,12.0
1979-07-13 06:54:13.040 ,0,0,1.,12.0,0.,12.0,0.,12.0,0.,12.0
1979-07-13 06:54:25.040 ,5,1,1.,12.0,0.,12.0,0.,12.0,0.,12.0
1979-07-13 06:54:37.040 ,5,1,16.,12.0,0.,12.0,0.,12.0,0.,12.0
1979-07-13 06:54:49.040 ,5,0,17.,12.0,0.,12.0,0.,12.0,1.,12.0
1979-07-13 06:55:01.040 ,5,0,25.,12.0,0.,12.0,0.,12.0,1.,12.0
1979-07-13 06:55:13.040 ,4,1,14.,12.0,0.,12.0,0.,12.0,0.,12.0
1979-07-13 06:55:25.040 ,4,1,19.,12.0,0.,12.0,0.,12.0,0.,12.0
1979-07-13 06:55:37.040 ,4,0,13.,12.0,0.,12.0,0.,12.0,0.,12.0
1979-07-13 06:55:49.040 ,4,0,9.,12.0,0.,12.0,0.,12.0,0.,12.0
1979-07-13 06:56:01.040 ,3,1,21.,12.0,0.,12.0,0.,12.0,1.,12.0
1979-07-13 06:56:13.040 ,3,1,12.,12.0,0.,12.0,0.,12.0,0.,12.0
1979-07-13 06:56:25.040 ,3,0,9.,12.0,0.,12.0,0.,12.0,1.,12.0
1979-07-13 06:56:37.040 ,3,0,18.,12.0,0.,12.0,0.,12.0,0.,12.0
1979-07-13 06:56:49.040 ,2,1,12.,12.0,0.,12.0,0.,12.0,0.,12.0
1979-07-13 06:57:01.040 ,2,1,8.,12.0,0.,12.0,0.,12.0,0.,12.0
1979-07-13 06:57:13.040 ,2,0,11.,12.0,0.,12.0,0.,12.0,0.,12.0
1979-07-13 06:57:25.040 ,2,0,3.,12.0,0.,12.0,0.,12.0,0.,12.0
1979-07-13 06:57:37.040 ,1,1,8.,12.0,0.,12.0,0.,12.0,0.,12.0
1979-07-13 06:57:49.040 ,1,1,3.,12.0,0.,12.0,0.,12.0,0.,12.0
1979-07-13 06:58:01.040 ,1,0,5.,12.0,0.,12.0,0.,12.0,1.,12.0
1979-07-13 06:58:13.040 ,1,0,7.,12.0,0.,12.0,0.,12.0,0.,12.0
1979-07-13 06:58:25.040 ,0,1,8.,12.0,0.,12.0,0.,12.0,0.,12.0
1979-07-13 06:58:37.040 ,0,1,3.,12.0,0.,12.0,0.,12.0,0.,12.0
1979-07-13 06:58:49.040 ,0,0,3.,12.0,0.,12.0,0.,12.0,0.,12.0
1979-07-13 06:59:01.040 ,0,0,1.,12.0,0.,12.0,0.,12.0,0.,12.0
1979-07-13 06:59:13.040 ,0,1,1.,12.0,1.,12.0,0.,12.0,0.,12.0
1979-07-13 06:59:25.040 ,0,1,5.,12.0,0.,12.0,0.,12.0,0.,12.0
1979-07-13 06:59:37.040 ,0,0,0.,12.0,0.,12.0,0.,12.0,0.,12.0
1979-07-13 06:59:49.040 ,0,0,1.,12.0,0.,12.0,0.,12.0,0.,12.0
1979-07-13 07:00:01.040 ,1,1,2.,12.0,0.,12.0,0.,12.0,0.,12.0
1979-07-13 07:00:13.040 ,1,1,4.,12.0,0.,12.0,0.,12.0,0.,12.0
1979-07-13 07:00:25.040 ,1,0,4.,12.0,0.,12.0,0.,12.0,1.,12.0
1979-07-13 07:00:37.040 ,1,0,2.,12.0,0.,12.0,0.,12.0,0.,12.0
1979-07-13 07:00:49.040 ,2,1,3.,12.0,0.,12.0,0.,12.0,0.,12.0
1979-07-13 07:01:01.040 ,2,1,6.,12.0,0.,12.0,0.,12.0,0.,12.0
1979-07-13 07:01:13.040 ,2,0,6.,12.0,0.,12.0,0.,12.0,0.,12.0
1979-07-13 07:01:25.040 ,2,0,7.,12.0,0.,12.0,0.,12.0,0.,12.0
1979-07-13 07:01:37.040 ,3,1,12.,12.0,0.,12.0,0.,12.0,0.,12.0
1979-07-13 07:01:49.040 ,3,1,9.,12.0,0.,12.0,0.,12.0,0.,12.0
1979-07-13 07:02:01.040 ,3,0,20.,12.0,0.,12.0,0.,12.0,0.,12.0
1979-07-13 07:02:13.040 ,3,0,16.,12.0,0.,12.0,0.,12.0,0.,12.0
1979-07-13 07:02:25.040 ,4,1,13.,12.0,0.,12.0,0.,12.0,0.,12.0
1979-07-13 07:02:37.040 ,4,1,7.,12.0,0.,12.0,0.,12.0,0.,12.0
1979-07-13 07:02:49.040 ,4,0,6.,12.0,0.,12.0,0.,12.0,0.,12.0
1979-07-13 07:03:01.040 ,4,0,10.,12.0,0.,12.0,0.,12.0,0.,12.0
1979-07-13 07:03:13.040 ,5,1,14.,12.0,0.,12.0,0.,12.0,0.,12.0
1979-07-13 07:03:25.040 ,5,1,11.,12.0,0.,12.0,0.,12.0,0.,12.0
1979-07-13 07:03:37.040 ,5,0,11.,12.0,0.,12.0,0.,12.0,0.,12.0
1979-07-13 07:03:49.040 ,5,0,9.,12.0,0.,12.0,0.,12.0,0.,12.0
1979-07-13 07:04:01.040 ,6,1,11.,12.0,0.,12.0,0.,12.0,0.,12.0
1979-07-13 07:04:13.040 ,6,1,11.,12.0,0.,12.0,0.,12.0,1.,12.0
1979-07-13 07:04:25.040 ,6,0,3.,12.0,0.,12.0,0.,12.0,0.,12.0
1979-07-13 07:04:37.040 ,6,0,8.,12.0,0.,12.0,0.,12.0,0.,12.0
1979-07-13 07:04:49.040 ,7,1,5.,12.0,0.,12.0,0.,12.0,0.,12.0
1979-07-13 07:05:01.040 ,7,1,3.,12.0,0.,12.0,0.,12.0,1.,12.0
1979-07-13 07:05:13.040 ,7,0,0.,12.0,0.,12.0,0.,12.0,0.,12.0
1979-07-13 07:05:25.040 ,7,0,0.,12.0,0.,12.0,0.,12.0,0.,12.0
1979-07-13 07:05:37.040 ,7,1,0.,12.0,0.,12.0,0.,12.0,0.,12.0
1979-07-13 07:05:49.040 ,7,1,0.,12.0,0.,12.0,0.,12.0,0.,12.0
1979-07-13 07:06:01.040 ,7,0,0.,12.0,0.,12.0,0.,12.0,0.,12.0
1979-07-13 07:06:13.040 ,7,0,0.,12.0,0.,12.0,0.,12.0,0.,12.0
1979-07-13 07:06:25.040 ,6,1,0.,12.0,0.,12.0,0.,12.0,0.,12.0
1979-07-13 07:06:37.040 ,6,1,6.,12.0,0.,12.0,0.,12.0,0.,12.0
1979-07-13 07:06:49.040 ,6,0,3.,12.0,0.,12.0,0.,12.0,1.,12.0
1979-07-13 07:07:01.040 ,6,0,5.,12.0,0.,12.0,0.,12.0,0.,12.0
1979-07-13 07:07:13.040 ,5,1,2.,12.0,0.,12.0,0.,12.0,0.,12.0
1979-07-13 07:07:25.040 ,5,1,9.,12.0,0.,12.0,0.,12.0,0.,12.0
1979-07-13 07:07:37.040 ,5,0,13.,12.0,0.,12.0,0.,12.0,1.,12.0
1979-07-13 07:07:49.040 ,5,0,8.,12.0,0.,12.0,0.,12.0,0.,12.0
1979-07-13 07:08:01.040 ,4,1,6.,12.0,0.,12.0,0.,12.0,0.,12.0
1979-07-13 07:08:13.040 ,4,1,11.,12.0,0.,12.0,0.,12.0,0.,12.0
1979-07-13 07:08:25.040 ,4,0,7.,12.0,0.,12.0,0.,12.0,0.,12.0
1979-07-13 07:08:37.040 ,4,0,17.,12.0,0.,12.0,0.,12.0,1.,12.0
1979-07-13 07:08:49.040 ,3,1,11.,12.0,0.,12.0,0.,12.0,1.,12.0
1979-07-13 07:09:01.040 ,3,1,11.,12.0,0.,12.0,0.,12.0,0.,12.0
1979-07-13 07:09:13.040 ,3,0,16.,12.0,0.,12.0,0.,12.0,0.,12.0
1979-07-13 07:09:25.040 ,3,0,11.,12.0,0.,12.0,0.,12.0,1.,12.0
1979-07-13 07:09:37.040 ,2,1,17.,12.0,0.,12.0,0.,12.0,0.,12.0
1979-07-13 07:09:49.040 ,2,1,20.,12.0,0.,12.0,0.,12.0,1.,12.0
1979-07-13 07:10:01.040 ,2,0,13.,12.0,0.,12.0,0.,12.0,0.,12.0
1979-07-13 07:10:13.040 ,2,0,7.,12.0,0.,12.0,0.,12.0,0.,12.0
1979-07-13 07:10:25.040 ,1,1,20.,12.0,0.,12.0,0.,12.0,0.,12.0
1979-07-13 07:10:37.040 ,1,1,7.,12.0,0.,12.0,0.,12.0,0.,12.0
1979-07-13 07:10:49.040 ,1,0,10.,12.0,0.,12.0,0.,12.0,0.,12.0
1979-07-13 07:11:01.040 ,1,0,5.,12.0,0.,12.0,0.,12.0,0.,12.0
1979-07-13 07:11:13.040 ,0,1,6.,12.0,0.,12.0,0.,12.0,1.,12.0
1979-07-13 07:11:25.040 ,0,1,3.,12.0,0.,12.0,0.,12.0,0.,12.0
1979-07-13 07:11:37.040 ,0,0,4.,12.0,0.,12.0,0.,12.0,0.,12.0
1979-07-13 07:11:49.040 ,0,0,5.,12.0,0.,12.0,0.,12.0,0.,12.0
1979-07-13 07:12:01.040 ,0,1,4.,12.0,0.,12.0,0.,12.0,0.,12.0
1979-07-13 07:12:13.040 ,0,1,2.,12.0,0.,12.0,0.,12.0,0.,12.0
1979-07-13 07:12:25.040 ,0,0,5.,12.0,0.,12.0,0.,12.0,0.,12.0
1979-07-13 07:12:37.040 ,0,0,3.,12.0,0.,12.0,0.,12.0,0.,12.0
1979-07-13 07:12:49.040 ,1,1,1.,12.0,0.,12.0,0.,12.0,1.,12.0
1979-07-13 07:13:01.040 ,1,1,1.,12.0,0.,12.0,0.,12.0,0.,12.0
1979-07-13 07:13:13.040 ,1,0,7.,12.0,0.,12.0,0.,12.0,0.,12.0
1979-07-13 07:13:25.040 ,1,0,5.,12.0,0.,12.0,0.,12.0,0.,12.0
1979-07-13 07:13:37.040 ,2,1,4.,12.0,0.,12.0,0.,12.0,0.,12.0
1979-07-13 07:13:49.040 ,2,1,7.,12.0,0.,12.0,0.,12.0,0.,12.0
1979-07-13 07:14:01.040 ,2,0,7.,12.0,0.,12.0,0.,12.0,0.,12.0
1979-07-13 07:14:13.040 ,2,0,4.,12.0,0.,12.0,0.,12.0,0.,12.0
1979-07-13 07:14:25.040 ,3,1,5.,12.0,0.,12.0,0.,12.0,0.,12.0
1979-07-13 07:14:37.040 ,3,1,6.,12.0,0.,12.0,0.,12.0,0.,12.0
1979-07-13 07:14:49.040 ,3,0,1.,12.0,0.,12.0,0.,12.0,0.,12.0
1979-07-13 07:15:01.040 ,3,0,0.,12.0,0.,12.0,0.,12.0,1.,12.0
1979-07-13 07:15:13.040 ,4,1,1.,12.0,0.,12.0,0.,12.0,0.,12.0
1979-07-13 07:15:25.040 ,4,1,5.,12.0,0.,12.0,0.,12.0,0.,12.0
1979-07-13 07:15:37.040 ,4,0,3.,12.0,0.,12.0,0.,12.0,0.,12.0
1979-07-13 07:15:49.040 ,4,0,6.,12.0,0.,12.0,0.,12.0,0.,12.0
1979-07-13 07:16:01.040 ,5,1,4.,12.0,0.,12.0,0.,12.0,0.,12.0
1979-07-13 07:16:13.040 ,5,1,1.,12.0,0.,12.0,0.,12.0,1.,12.0
1979-07-13 07:16:25.040 ,5,0,2.,12.0,0.,12.0,0.,12.0,0.,12.0
1979-07-13 07:16:37.040 ,5,0,0.,12.0,0.,12.0,0.,12.0,0.,12.0
1979-07-13 07:16:49.040 ,6,1,2.,12.0,0.,12.0,0.,12.0,0.,12.0
1979-07-13 07:17:01.040 ,6,1,1.,12.0,0.,12.0,0.,12.0,0.,12.0